Regional Weather Roundup
Issued by NWS

Home | Current Version | Previous Version | Graphics & Text | Print | Product List | Glossary On
Versions: 1 2 3 4 5 6 7 8 9 10 11 12 13 14 15 16 17 18 19 20 21 22 23 24 25 26 27 28 29 30 31 32 33 34 35 36 37 38 39 40 41 42 43 44 45 46 47 48 49 50
000
ASUS44 KMEG 012010
RWRTN
TENNESSEE HOURLY STATE WEATHER ROUNDUP
NATIONAL WEATHER SERVICE MEMPHIS TN
300 PM CDT WED JUL 01 2015

TNZ002-004-019-021-049-052-054-088>092-012100-
WEST TENNESSEE

CITY           SKY/WX    TMP DP  RH WIND       PRES   REMARKS
MEMPHIS INTL   CLOUDY    84  73  69 SW8       29.98F HX  90
NWS MEMPHIS      N/A     84 N/A N/A MISG        N/A
JACKSON        CLOUDY    83  67  58 W6        29.97F
DYERSBURG        N/A    N/A N/A N/A MISG        N/A
PARIS          SUNNY     75  66  73 S7        29.95F
LEXINGTON      MOSUNNY   77  70  78 CALM      29.97F
$$

TNZ008-025-027-028-033-062-065-066-012100-
NORTH MIDDLE TENNESSEE

CITY           SKY/WX    TMP DP  RH WIND       PRES   REMARKS
NASHVILLE      CLOUDY    71  71 100 S9        29.97F
CLARKSVILLE    CLOUDY    78  66  66 W10G18    29.94F
SMYRNA         LGT RAIN  71  69  93 S6        29.99F
COOKEVILLE     CLOUDY    72  70  94 SW6       30.03F
CROSSVILLE     CLOUDY    76  63  64 W16G23    30.06R
$$

TNZ061-075-076-078-094-096-097-012100-
SOUTH MIDDLE TENNESSEE

CITY           SKY/WX    TMP DP  RH WIND       PRES   REMARKS
FAYETTEVILLE   CLOUDY    66  64  94 CALM      30.03F
TULLAHOMA      CLOUDY    66  64  94 CALM      30.06F
WINCHESTER     CLOUDY    66  66 100 CALM      30.07S
MCMINNVILLE    PTSUNNY   70  70 100 CALM      30.05S
COLUMBIA       MOSUNNY   70  70 100 S6        29.99F
SHELBYVILLE    CLOUDY    70  70 100 S6        30.04R
$$

TNZ017-018-042-046-047-012100-
NORTHEAST TENNESSEE

CITY           SKY/WX    TMP DP  RH WIND       PRES   REMARKS
TRI CITIES     CLOUDY    78  66  66 SW9       29.98F
ELIZABETHTON   PTCLDY    75  66  73 SW6       29.99F
$$

TNZ012-013-036-069-073-074-012100-
CENTRAL EAST TENNESSEE

CITY           SKY/WX    TMP DP  RH WIND       PRES   REMARKS
KNOXVILLE      CLOUDY    78  69  73 SW15      29.99S
OAK RIDGE      CLOUDY    80  68  66 W8        30.00F
GATLINBURG     PTCLDY    79  68  69 SW6       29.99R
MORRISTOWN     MOCLDY    70  68  94 W15G36    30.04R
$$

TNZ083-085-099-012100-
SOUTHEAST TENNESSEE

CITY           SKY/WX    TMP DP  RH WIND       PRES   REMARKS
CHATTANOOGA    LGT RAIN  77  72  84 S3        30.01F
$$

SKY/WX REPORTED AS FAIR MEANS FEW OR NO CLOUDS BELOW
12 THOUSAND FEET.




USA.gov is the U.S. government's official web portal to all federal, state and local government web resources and services.